ROMMA est une association bénévole à but non lucratif. Votre soutien est indispensable : ADHERER à ROMMA ou FAIRE un DON

Die - (26, Drôme)

Diois (400 m)   Longitude: 5° 21' 55"E   Latitude: 44° 45' 16"N Station partenaire n°159
 

Détail journalier du     <<     >>

Température Precipitation Humidité Pression Vent Dir Rafale Dir. rafale Ensol.
Heure (°C) (mm) (%) (hPa) (km/h) (km/h) (min)
01:00 15.106510157O18ONO0
02:00 14.106910153O11NO0
03:00 11.007810153SE13ONO0
04:00 8.608610162ESE6SSO0
05:00 7.808910162ESE6S0
06:00 8.008810152SE8SSE0
07:00 7.609010161SE5SSE0
08:00 7.009110162SE6SE0
09:00 8.209010162SSE6SSE0
10:00 12.307910172SSE6SO0
11:00 16.906410162SSE6SSO60
12:00 20.605110153N18NO60
13:00 20.404910158O21ONO60
14:00 20.405210158O19O30
15:00 19.405410148O23OSO0
16:00 18.8056101410ONO23O0
17:00 18.305610146ONO15OSO0
18:00 17.706110145O15OSO0
19:00 15.807610143ONO10O0
20:00 13.718910152N6O0
21:00 12.90.292101405S0
22:00 12.8093101402S0
23:00 13.20.28010153S16O0
minuit 13.507410154OSO16O0

Graphique du 06-10-2019

 

Serveur OMMA